Home > Weather > Dammam > Past weeks

Flag for Saudi Arabia Past Weather in Dammam, Saudi Arabia — Yesterday and Last 2 Weeks

Now
91 °F

Clear.


Feels Like: 108 °F
Forecast: 86 / 105 °F
Wind: 12 mph from East

Location: Dhahran

Current Time: Jul 24, 2016 at 9:40:56 PM

Latest Report: Jul 24, 2016 at 9:00 PM


Visibility: 10 mi

Pressure: 29.39 "Hg

Humidity: 67%

Dew Point: 79 °F

Location of DammamLocation

Past Weather in Dammam — Graph

°F

Dammam Temperature Yesterday

Maximum temperature yesterday: 115 °F (at 1:00 PM)
Minimum temperature yesterday: 93 °F (at 2:00 AM)
Average temperature yesterday: 104 °F

High & Low Weather Summary for the Past Weeks

 TemperatureHumidityPressure
High117 °F (Jul 15, 1:00 PM)84% (Jul 19, 4:00 AM)29.50 "Hg (Jul 19, 4:00 AM)
Low84 °F (Jul 13, 4:00 AM)5% (Jul 14, 12:00 PM)29.30 "Hg (Jul 23, 4:00 PM)
Average100 °F28%29.41 "Hg
* Reported Jul 9 8:00 PM — Jul 24 8:00 PM, Dammam, Weather by CustomWeather, © 2016

Note: Actual official high and low records may vary slightly from our data, if they occured in-between our weather recording intervals... More about our weather records

Advertising

Dammam Weather History for the Previous 24 Hours

Scroll right to see more
 ConditionsComfort  
Time TempWeatherWind HumidityBarometerVisibility
8:00 PM
Sun, Jul 24
93 °FClear.10 mph59%29.39 "Hg10 mi
7:00 PM95 °FClear.10 mph41%29.39 "Hg10 mi
6:00 PM100 °FSunny.14 mph24%29.36 "Hg10 mi
5:00 PM104 °FSunny.15 mph16%29.36 "Hg10 mi
4:00 PM106 °FSunny.16 mph14%29.36 "Hg5 mi
3:00 PM106 °FSunny.15 mph13%29.39 "Hg5 mi
2:00 PM108 °FSunny.15 mph13%29.39 "Hg5 mi
1:00 PM108 °FSunny.16 mph10%29.39 "Hg5 mi
12:00 PM109 °FSunny.13 mph8%29.39 "Hg4 mi
11:00 AM108 °FSunny.13 mph11%29.42 "Hg3 mi
10:00 AM108 °FSunny.14 mph10%29.42 "Hg3 mi
9:00 AM106 °FSunny.15 mph13%29.42 "Hg3 mi
7:00 AM99 °FSunny.6 mph25%29.39 "Hg1 mi
6:00 AM95 °FDuststorm.7 mph30%29.39 "Hg1 mi
5:00 AM95 °FDuststorm.7 mph25%29.39 "Hg1 mi
4:00 AM97 °FDuststorm.10 mph20%29.36 "Hg3 mi
3:00 AM99 °FLow level haze.15 mph19%29.36 "Hg2 mi
11:00 PM
Sat, Jul 23
102 °FClear.13 mph21%29.36 "Hg10 mi
10:00 PM104 °FClear.13 mph16%29.36 "Hg10 mi
9:00 PM104 °FClear.16 mph14%29.33 "Hg10 mi
Weather by CustomWeather, © 2016

See weather overviewHow to use our weather pages